Precipitable_Water
1.16 1.17 1.16 1.15 1.19 1.19 1.17 1.16 1.20 1.21 1.21 1.18 1.12 1.25 1.34 1.31 1.25 1.26 1.28 1.29 1.29 1.32 1.38 1.41 1.45 1.46 1.50 1.52 1.53 1.49 1.46 1.48 1.51 1.50 1.55 1.55 1.55 1.47 1.40 1.37 1.38 1.32
1.12 1.14 1.13 1.13 1.15 1.18 1.20 1.23 1.21 1.20 1.21 1.21 1.21 1.19 1.30 1.38 1.39 1.33 1.28 1.27 1.28 1.29 1.33 1.38 1.43 1.47 1.51 1.51 1.52 1.48 1.47 1.47 1.44 1.48 1.51 1.45 1.46 1.45 1.40 1.39 1.34 1.34
1.06 1.05 1.06 1.06 1.09 1.12 1.15 1.18 1.20 1.22 1.22 1.24 1.24 1.24 1.18 1.31 1.47 1.35 1.35 1.31 1.30 1.29 1.29 1.34 1.39 1.43 1.48 1.53 1.54 1.51 1.48 1.45 1.43 1.47 1.50 1.42 1.44 1.43 1.42 1.40 1.36 1.32
1.02 1.03 1.05 1.06 1.09 1.10 1.14 1.15 1.19 1.21 1.24 1.25 1.27 1.30 1.27 1.18 1.31 1.38 1.35 1.31 1.30 1.32 1.33 1.34 1.36 1.39 1.42 1.47 1.52 1.52 1.53 1.51 1.50 1.52 1.45 1.43 1.43 1.45 1.44 1.43 1.35 1.29
0.99 1.00 1.02 1.05 1.07 1.07 1.08 1.09 1.13 1.18 1.20 1.23 1.26 1.28 1.35 1.29 1.28 1.31 1.33 1.30 1.31 1.33 1.35 1.33 1.34 1.36 1.39 1.43 1.47 1.50 1.53 1.54 1.49 1.51 1.45 1.41 1.43 1.43 1.43 1.41 1.35 1.31
0.93 0.94 0.96 0.96 0.97 0.99 1.01 1.05 1.09 1.14 1.19 1.21 1.22 1.26 1.26 1.36 1.32 1.28 1.28 1.29 1.29 1.32 1.33 1.35 1.34 1.36 1.38 1.39 1.40 1.40 1.47 1.50 1.50 1.46 1.40 1.37 1.38 1.42 1.42 1.39 1.34 1.30
0.83 0.85 0.85 0.88 0.89 0.91 0.93 0.98 1.04 1.08 1.13 1.19 1.25 1.26 1.25 1.30 1.32 1.27 1.29 1.28 1.28 1.29 1.31 1.34 1.35 1.35 1.37 1.38 1.41 1.42 1.43 1.51 1.44 1.45 1.39 1.37 1.39 1.40 1.40 1.40 1.37 1.33
0.81 0.81 0.82 0.83 0.82 0.84 0.85 0.89 0.93 1.00 1.07 1.12 1.15 1.21 1.26 1.24 1.26 1.30 1.32 1.24 1.30 1.25 1.29 1.33 1.35 1.36 1.36 1.37 1.35 1.38 1.41 1.45 1.40 1.45 1.41 1.41 1.43 1.38 1.38 1.37 1.37 1.35
0.78 0.77 0.77 0.77 0.77 0.78 0.79 0.81 0.85 0.90 0.98 1.03 1.09 1.16 1.21 1.23 1.24 1.26 1.32 1.31 1.26 1.29 1.31 1.36 1.39 1.37 1.35 1.37 1.34 1.35 1.37 1.38 1.43 1.40 1.42 1.40 1.38 1.38 1.38 1.38 1.35 1.34
0.75 0.75 0.75 0.75 0.74 0.76 0.77 0.79 0.82 0.85 0.90 0.93 1.00 1.10 1.15 1.20 1.23 1.25 1.27 1.29 1.27 1.22 1.26 1.30 1.30 1.35 1.42 1.43 1.39 1.37 1.38 1.38 1.38 1.39 1.41 1.41 1.38 1.39 1.41 1.38 1.32 1.30
0.73 0.74 0.73 0.74 0.73 0.74 0.75 0.78 0.80 0.82 0.84 0.85 0.90 0.96 1.06 1.15 1.20 1.25 1.26 1.27 1.33 1.32 1.29 1.28 1.27 1.36 1.42 1.37 1.41 1.40 1.40 1.45 1.42 1.38 1.39 1.38 1.39 1.39 1.41 1.37 1.32 1.27
0.71 0.72 0.72 0.73 0.73 0.73 0.73 0.75 0.77 0.79 0.80 0.82 0.85 0.86 0.94 1.05 1.13 1.20 1.26 1.33 1.36 1.35 1.33 1.28 1.30 1.31 1.38 1.43 1.40 1.42 1.39 1.38 1.39 1.36 1.36 1.38 1.41 1.38 1.40 1.39 1.33 1.27
0.70 0.70 0.72 0.72 0.72 0.72 0.73 0.73 0.73 0.75 0.77 0.79 0.82 0.83 0.86 0.93 1.01 1.09 1.19 1.25 1.31 1.36 1.37 1.36 1.34 1.31 1.33 1.34 1.38 1.40 1.37 1.36 1.35 1.34 1.32 1.33 1.36 1.42 1.45 1.43 1.39 1.34
0.70 0.71 0.71 0.71 0.71 0.71 0.71 0.71 0.71 0.71 0.73 0.75 0.78 0.80 0.82 0.86 0.91 0.97 1.06 1.16 1.24 1.32 1.38 1.39 1.33 1.31 1.28 1.28 1.30 1.36 1.37 1.34 1.34 1.29 1.28 1.31 1.36 1.40 1.46 1.41 1.40 1.36
0.70 0.71 0.71 0.70 0.70 0.69 0.69 0.69 0.69 0.69 0.70 0.70 0.71 0.74 0.78 0.82 0.87 0.90 0.93 1.00 1.10 1.23 1.30 1.32 1.30 1.30 1.32 1.31 1.28 1.25 1.29 1.29 1.32 1.29 1.31 1.29 1.30 1.33 1.35 1.37 1.36 1.34
0.70 0.70 0.69 0.69 0.68 0.67 0.68 0.68 0.68 0.68 0.69 0.68 0.69 0.70 0.72 0.76 0.80 0.84 0.87 0.91 0.97 1.06 1.18 1.26 1.30 1.34 1.33 1.31 1.29 1.28 1.26 1.34 1.39 1.32 1.33 1.33 1.30 1.33 1.36 1.36 1.34 1.33
0.69 0.69 0.69 0.67 0.68 0.68 0.68 0.67 0.67 0.67 0.67 0.67 0.67 0.68 0.69 0.71 0.73 0.75 0.80 0.85 0.90 0.96 1.02 1.11 1.22 1.30 1.30 1.30 1.30 1.30 1.30 1.30 1.30 1.30 1.33 1.30 1.32 1.29 1.31 1.31 1.32 1.31
0.69 0.69 0.68 0.67 0.68 0.67 0.67 0.67 0.67 0.66 0.66 0.66 0.66 0.66 0.67 0.69 0.68 0.70 0.74 0.78 0.83 0.88 0.94 1.01 1.12 1.19 1.22 1.27 1.30 1.32 1.32 1.30 1.29 1.29 1.29 1.29 1.31 1.32 1.30 1.33 1.31 1.32
0.69 0.68 0.67 0.67 0.66 0.67 0.67 0.67 0.67 0.66 0.65 0.65 0.65 0.67 0.68 0.66 0.66 0.68 0.69 0.72 0.76 0.80 0.87 0.95 1.02 1.10 1.11 1.14 1.20 1.23 1.26 1.28 1.29 1.28 1.29 1.29 1.28 1.26 1.26 1.29 1.32 1.30
0.68 0.68 0.67 0.67 0.67 0.67 0.67 0.66 0.66 0.65 0.66 0.67 0.67 0.67 0.67 0.66 0.67 0.66 0.68 0.69 0.71 0.75 0.81 0.88 0.95 1.01 1.06 1.09 1.13 1.18 1.23 1.26 1.28 1.30 1.34 1.35 1.32 1.32 1.31 1.33 1.33 1.29
0.67 0.67 0.66 0.67 0.67 0.67 0.66 0.65 0.65 0.65 0.66 0.66 0.67 0.66 0.66 0.66 0.66 0.66 0.67 0.68 0.69 0.72 0.76 0.81 0.88 0.95 0.98 1.03 1.08 1.13 1.19 1.22 1.25 1.30 1.33 1.34 1.32 1.36 1.39 1.35 1.32 1.29
0.66 0.66 0.66 0.66 0.65 0.65 0.64 0.64 0.64 0.64 0.64 0.66 0.67 0.67 0.69 0.69 0.69 0.69 0.68 0.68 0.69 0.70 0.71 0.74 0.81 0.87 0.93 0.98 1.03 1.09 1.14 1.18 1.22 1.25 1.28 1.33 1.31 1.32 1.34 1.33 1.31 1.37
0.64 0.64 0.64 0.63 0.64 0.63 0.62 0.62 0.62 0.63 0.65 0.66 0.65 0.66 0.67 0.68 0.68 0.68 0.69 0.69 0.69 0.69 0.69 0.71 0.75 0.80 0.85 0.91 0.98 1.04 1.09 1.13 1.17 1.21 1.23 1.25 1.28 1.32 1.33 1.36 1.32 1.30
0.61 0.62 0.61 0.61 0.61 0.60 0.60 0.61 0.62 0.63 0.64 0.67 0.65 0.64 0.65 0.67 0.69 0.69 0.70 0.70 0.69 0.69 0.70 0.70 0.73 0.77 0.81 0.86 0.91 0.98 1.05 1.09 1.14 1.18 1.21 1.25 1.24 1.30 1.32 1.28 1.32 1.31
0.58 0.58 0.58 0.58 0.58 0.58 0.59 0.59 0.60 0.60 0.62 0.64 0.66 0.66 0.66 0.68 0.70 0.70 0.70 0.71 0.71 0.71 0.72 0.71 0.73 0.76 0.78 0.82 0.88 0.94 1.01 1.07 1.13 1.20 1.23 1.20 1.20 1.20 1.23 1.23 1.26 1.28
0.54 0.54 0.55 0.54 0.54 0.56 0.57 0.57 0.59 0.59 0.59 0.61 0.63 0.65 0.66 0.68 0.69 0.69 0.69 0.71 0.73 0.72 0.72 0.73 0.73 0.74 0.78 0.80 0.85 0.91 0.98 1.05 1.10 1.12 1.11 1.14 1.13 1.15 1.17 1.19 1.22 1.22
Wind_Speed
20 20 20 21 21 22 22 23 24 25 26 26 26 26 25 24 24 23 22 21 20 20 20 20 19 19 19 19 20 22 23 24 24 24 23 23 23 23 23 23 23 22
19 20 20 20 21 22 23 24 25 25 26 26 26 26 25 23 23 22 22 21 20 20 20 20 20 20 20 20 21 22 23 24 24 24 24 24 24 24 24 24 23 23
19 19 19 20 21 22 23 24 25 25 25 26 26 25 25 24 23 21 21 21 21 20 20 20 21 21 21 21 22 22 23 24 25 25 24 24 24 24 24 24 23 23
19 19 19 20 21 22 23 23 24 24 24 25 25 25 25 25 24 22 21 21 21 21 20 21 21 22 22 22 22 23 24 25 25 25 25 24 24 24 25 24 24 24
19 19 19 20 21 22 23 23 23 24 24 24 24 23 23 24 25 24 22 21 22 21 21 21 22 22 22 22 23 24 24 25 25 25 25 24 24 25 25 25 25 25
18 19 19 20 21 22 22 23 24 24 24 24 24 23 23 23 24 25 24 23 22 22 21 21 22 22 23 23 23 24 24 24 24 25 26 25 25 25 26 26 26 26
18 19 19 20 21 21 22 23 23 24 23 23 24 24 24 24 24 24 25 24 24 23 22 22 22 22 23 24 24 24 25 25 24 25 26 26 26 26 26 27 27 26
18 19 19 20 21 21 21 22 23 23 23 23 24 24 24 24 24 24 25 25 24 24 23 23 23 23 23 24 25 25 26 26 25 25 26 26 26 27 27 27 27 27
18 19 19 20 20 20 21 22 22 22 23 23 23 24 24 24 25 25 25 25 25 25 24 24 24 24 24 24 25 26 26 26 26 26 27 27 27 27 28 28 27 27
19 19 19 20 20 20 21 22 22 22 22 23 23 23 23 24 25 24 24 25 26 26 25 25 24 24 24 25 26 26 26 27 27 27 27 27 27 28 28 28 28 28
19 19 20 20 21 21 21 22 22 22 22 22 22 22 23 23 24 24 23 24 25 26 25 25 25 25 24 25 26 27 27 27 27 27 27 27 27 28 28 28 28 29
20 20 20 21 21 21 22 22 22 22 23 23 22 23 23 22 23 23 23 23 23 24 25 25 25 25 24 24 25 26 26 27 27 27 27 27 27 28 29 28 28 29
20 20 21 21 21 22 22 22 22 23 23 23 23 23 23 23 22 22 22 22 22 23 24 24 25 25 25 24 24 25 26 27 27 28 28 28 28 28 28 28 28 28
20 20 21 21 21 22 22 22 22 23 23 23 23 23 23 23 22 22 22 22 22 23 24 24 25 26 26 25 25 25 26 27 28 28 29 29 29 29 29 29 29 29
20 20 21 21 21 22 22 22 23 23 23 23 23 23 23 22 22 22 22 22 22 23 24 24 25 25 25 25 25 25 25 27 27 28 28 29 29 29 29 29 29 30
20 20 21 21 22 22 23 23 23 23 24 24 24 24 24 23 22 22 23 23 23 23 24 24 24 25 25 26 26 26 25 25 26 26 27 28 29 29 29 29 29 30
21 21 22 22 22 23 23 24 24 24 24 25 25 25 25 24 23 22 22 23 23 23 23 23 24 25 26 27 27 27 27 26 26 26 27 28 29 29 29 29 29 30
21 22 22 23 23 24 24 24 25 25 25 25 25 25 25 25 24 23 23 22 23 23 23 23 23 23 24 26 27 28 28 28 27 26 27 28 29 29 30 29 29 29
22 22 23 23 24 24 25 25 25 25 25 25 25 25 25 25 25 24 23 22 22 23 23 24 24 24 24 24 26 27 28 29 28 27 27 27 28 29 30 30 29 29
23 23 23 24 25 25 25 25 25 25 25 25 25 25 25 25 25 25 24 23 23 22 23 23 24 24 25 25 25 26 27 27 28 28 28 27 28 29 29 30 30 29
23 23 23 24 24 24 24 25 25 25 25 25 25 25 25 25 25 25 24 23 23 23 23 23 24 24 25 26 27 27 27 27 28 29 28 28 28 29 29 30 30 30
22 23 23 23 23 24 24 24 24 25 25 24 24 24 24 24 24 24 24 24 24 23 23 23 24 24 25 26 28 28 28 28 29 29 29 29 29 29 29 30 31 30
22 22 23 23 23 23 24 24 24 24 24 24 24 24 23 23 23 23 23 24 24 24 24 24 24 24 25 26 27 28 29 29 29 30 30 29 29 29 28 28 29 30
21 22 22 22 23 23 23 24 24 24 23 23 23 23 23 22 22 22 22 23 23 23 24 24 24 24 24 25 26 27 28 28 29 29 30 29 28 27 27 26 27 28
21 22 22 22 23 23 23 24 24 24 24 23 23 22 22 22 22 21 21 21 22 22 23 23 23 23 23 24 24 25 26 27 27 27 28 28 27 27 27 27 27 28
22 22 23 23 23 23 24 24 24 24 24 24 23 23 23 22 22 21 21 21 20 20 21 21 21 21 22 22 22 23 23 24 25 25 26 27 27 27 27 27 28 29
Wind_Direction
300 299 297 295 295 296 295 295 295 294 292 290 288 285 282 279 277 275 275 274 273 272 269 265 261 256 252 249 243 237 235 235 234 234 234 230 228 230 231 230 231 232
302 300 298 297 296 297 297 296 296 295 294 291 289 286 281 279 278 274 270 270 271 270 267 263 259 255 250 248 244 239 237 236 235 234 234 233 233 233 232 231 232 233
302 300 299 298 297 298 299 298 297 296 295 292 290 286 280 277 280 277 270 268 269 270 266 262 258 254 251 249 246 242 240 237 235 234 234 234 235 234 232 232 233 233
304 301 299 298 298 298 299 298 298 298 296 293 291 288 281 275 275 278 274 268 268 269 267 263 259 254 252 250 247 245 241 237 234 233 234 236 236 234 232 231 233 233
305 303 301 300 300 299 299 298 299 299 298 296 293 290 286 278 273 274 275 270 266 267 266 263 260 255 252 251 249 246 243 239 236 235 235 236 236 234 232 231 233 234
307 305 304 303 302 301 300 298 298 299 298 297 294 291 288 283 277 273 271 270 266 265 265 263 260 256 253 250 249 247 244 241 238 237 236 235 236 234 232 233 234 236
309 308 307 306 305 303 303 301 300 299 297 295 295 293 289 287 283 276 270 268 265 264 263 262 261 258 254 250 248 247 245 243 241 239 237 236 236 235 234 234 235 236
310 310 309 309 308 307 306 306 305 302 299 296 294 293 291 289 286 280 273 268 265 263 263 262 261 259 255 251 248 247 246 245 243 241 238 238 237 236 235 234 234 235
310 310 310 311 310 309 308 308 308 306 303 300 296 294 292 290 288 284 276 269 265 264 264 262 262 260 255 252 249 247 246 245 244 242 240 238 238 236 234 233 234 234
310 310 311 312 311 310 310 310 310 309 307 305 301 297 294 292 289 286 281 272 264 262 263 263 262 261 258 254 250 248 247 245 243 242 240 239 238 237 235 234 234 234
310 310 310 311 311 310 311 311 310 310 309 308 304 300 298 296 292 288 284 277 265 261 263 263 261 262 261 256 252 249 247 244 241 241 241 241 240 238 237 236 235 234
309 309 310 310 310 310 310 311 310 310 309 308 306 303 301 299 296 291 286 281 270 263 265 264 261 262 263 260 256 252 248 245 242 242 243 243 242 240 238 236 236 234
308 308 309 309 308 309 309 310 310 310 310 309 308 306 302 300 298 295 289 283 275 268 267 267 263 262 262 262 259 255 251 248 245 244 244 244 243 240 238 236 236 234
306 306 307 307 307 308 308 309 309 310 310 309 309 308 305 300 298 297 292 285 278 273 270 270 267 263 261 261 260 257 253 251 249 246 245 244 243 242 240 238 237 235
304 304 305 306 307 307 308 309 309 309 310 309 309 309 307 303 298 296 293 289 284 278 274 273 270 265 261 260 259 257 256 254 250 247 245 244 244 242 241 240 238 237
303 303 304 305 306 306 307 308 308 309 309 309 308 307 307 305 300 296 292 290 287 283 279 276 272 266 263 262 259 256 256 256 252 249 247 246 245 243 241 240 238 236
303 304 304 304 305 305 305 306 307 307 308 309 307 306 306 305 303 299 294 290 287 285 281 279 275 270 266 264 261 256 255 256 255 253 249 247 246 243 241 239 237 236
303 304 305 305 305 305 305 305 306 306 308 309 308 307 306 305 304 302 297 292 288 285 282 278 276 276 272 268 264 259 255 255 256 254 251 248 245 243 242 240 237 236
304 304 304 305 305 305 305 305 305 306 307 308 308 308 307 306 305 303 300 296 290 286 283 278 275 276 277 273 268 263 258 255 254 254 252 248 244 243 242 239 238 238
304 304 304 304 305 305 305 305 305 305 306 306 306 308 308 307 306 304 302 299 295 289 285 280 276 275 276 275 271 266 262 257 254 253 251 248 245 244 242 239 238 239
303 303 303 304 304 305 305 305 306 306 306 305 305 306 307 307 306 305 303 301 299 294 289 284 280 277 275 274 271 268 265 260 256 254 252 249 247 245 242 240 239 238
303 302 303 303 303 304 305 305 305 305 306 305 304 304 306 307 306 305 304 302 300 298 294 289 285 282 278 274 271 269 266 262 258 255 252 249 247 245 244 242 238 235
303 303 303 303 304 304 304 304 305 305 304 304 303 303 304 305 305 305 304 303 301 300 297 293 290 287 283 278 273 269 266 262 259 256 252 248 247 245 244 241 237 234
305 305 305 304 304 304 304 303 304 304 304 303 302 302 302 302 303 303 304 304 302 301 299 296 293 291 289 284 277 272 267 262 259 256 251 247 244 242 240 238 237 235
307 306 306 305 305 305 304 303 302 303 304 303 302 301 301 301 300 300 303 304 302 301 301 299 296 293 292 289 283 278 272 265 260 256 250 245 242 240 238 239 239 237
306 306 305 305 305 305 305 304 302 302 303 304 303 301 300 300 300 300 301 302 303 303 303 303 301 298 296 293 288 284 278 270 261 254 248 245 243 241 240 242 241 238